Time,TemperatureF,DewpointF,PressureIn,WindDirection,WindDirectionDegrees,WindSpeedMPH,WindSpeedGustMPH,Humidity,HourlyPrecipIn,Conditions,Clouds,dailyrainin,SoftwareType,DateUTC
2013-02-21 00:07:00,48.0,38.7,29.94,North,0,0.0,-999.0,70,0.00,,,0.00,open2300 v1.10,2013-02-21 08:07:00,
2013-02-21 00:21:00,47.8,38.5,29.94,North,0,0.0,-999.0,70,0.00,,,0.00,open2300 v1.10,2013-02-21 08:21:00,
2013-02-21 00:36:00,47.8,38.5,29.93,North,0,0.0,-999.0,70,0.00,,,0.00,open2300 v1.10,2013-02-21 08:36:00,
2013-02-21 00:51:00,47.8,38.5,29.94,North,0,0.0,-999.0,70,0.00,,,0.00,open2300 v1.10,2013-02-21 08:51:00,
2013-02-21 01:07:00,47.7,38.3,29.94,North,0,0.0,-999.0,70,0.00,,,0.00,open2300 v1.10,2013-02-21 09:07:00,
2013-02-21 01:21:00,47.5,38.2,29.94,North,0,0.0,-999.0,70,0.00,,,0.00,open2300 v1.10,2013-02-21 09:21:00,
2013-02-21 01:36:00,47.1,37.5,29.94,North,0,0.0,-999.0,69,0.00,,,0.00,open2300 v1.10,2013-02-21 09:36:00,
2013-02-21 01:51:00,47.1,37.5,29.94,North,0,0.0,-999.0,69,0.00,,,0.00,open2300 v1.10,2013-02-21 09:51:00,
2013-02-21 02:07:00,47.1,37.5,29.95,North,0,0.0,-999.0,69,0.00,,,0.00,open2300 v1.10,2013-02-21 10:07:00,
2013-02-21 02:21:00,46.9,37.3,29.94,North,0,0.0,-999.0,69,0.00,,,0.00,open2300 v1.10,2013-02-21 10:21:00,
2013-02-21 02:36:00,46.9,37.3,29.93,North,0,0.0,-999.0,69,0.00,,,0.00,open2300 v1.10,2013-02-21 10:36:00,
2013-02-21 02:51:00,46.9,37.3,29.93,North,0,0.0,-999.0,69,0.00,,,0.00,open2300 v1.10,2013-02-21 10:51:00,
2013-02-21 03:07:00,46.9,37.3,29.94,North,0,0.0,-999.0,69,0.00,,,0.00,open2300 v1.10,2013-02-21 11:07:00,
2013-02-21 03:21:00,46.8,37.2,29.93,North,0,0.0,-999.0,69,0.00,,,0.00,open2300 v1.10,2013-02-21 11:21:00,
2013-02-21 03:36:00,46.6,36.6,29.93,North,0,0.0,-999.0,68,0.00,,,0.00,open2300 v1.10,2013-02-21 11:36:00,
2013-02-21 03:51:00,46.6,36.6,29.93,North,0,0.0,-999.0,68,0.00,,,0.00,open2300 v1.10,2013-02-21 11:51:00,
2013-02-21 04:07:00,46.6,36.6,29.93,North,0,0.0,-999.0,68,0.00,,,0.00,open2300 v1.10,2013-02-21 12:07:00,
2013-02-21 04:21:00,46.6,36.6,29.94,North,0,0.0,-999.0,68,0.00,,,0.00,open2300 v1.10,2013-02-21 12:21:00,
2013-02-21 04:36:00,46.2,36.2,29.93,North,0,0.0,-999.0,68,0.00,,,0.00,open2300 v1.10,2013-02-21 12:36:00,
2013-02-21 04:51:00,46.2,36.2,29.94,North,0,0.0,-999.0,68,0.00,,,0.00,open2300 v1.10,2013-02-21 12:51:00,
2013-02-21 05:07:00,46.6,36.6,29.94,North,0,0.0,-999.0,68,0.00,,,0.00,open2300 v1.10,2013-02-21 13:07:00,
2013-02-21 05:21:00,46.6,36.6,29.95,North,0,0.0,-999.0,68,0.00,,,0.00,open2300 v1.10,2013-02-21 13:21:00,
2013-02-21 05:36:00,46.2,36.2,29.95,North,0,0.0,-999.0,68,0.00,,,0.00,open2300 v1.10,2013-02-21 13:36:00,
2013-02-21 05:51:00,46.2,36.6,29.95,North,0,0.0,-999.0,69,0.00,,,0.00,open2300 v1.10,2013-02-21 13:51:00,
2013-02-21 06:07:00,45.7,36.1,29.95,North,0,0.0,-999.0,69,0.00,,,0.00,open2300 v1.10,2013-02-21 14:07:00,
2013-02-21 06:21:00,45.7,36.1,29.96,North,0,0.0,-999.0,69,0.00,,,0.00,open2300 v1.10,2013-02-21 14:21:00,
2013-02-21 06:36:00,45.7,36.1,29.97,North,0,0.0,-999.0,69,0.00,,,0.00,open2300 v1.10,2013-02-21 14:36:00,
2013-02-21 06:51:00,45.7,36.5,29.96,North,0,0.0,-999.0,70,0.00,,,0.00,open2300 v1.10,2013-02-21 14:51:00,
2013-02-21 07:06:00,45.7,36.5,29.96,North,0,0.0,-999.0,70,0.00,,,0.00,open2300 v1.10,2013-02-21 15:06:00,
2013-02-21 07:21:00,45.7,36.5,29.97,North,0,0.0,-999.0,70,0.00,,,0.00,open2300 v1.10,2013-02-21 15:21:00,
2013-02-21 07:36:00,46.0,36.5,29.98,North,0,0.0,-999.0,69,0.00,,,0.00,open2300 v1.10,2013-02-21 15:36:00,
2013-02-21 07:51:00,46.0,36.5,29.99,North,0,0.0,-999.0,69,0.00,,,0.00,open2300 v1.10,2013-02-21 15:51:00,
2013-02-21 08:06:00,46.2,36.6,29.99,North,0,0.0,-999.0,69,0.00,,,0.00,open2300 v1.10,2013-02-21 16:06:00,
2013-02-21 08:21:00,46.4,36.4,29.99,North,0,0.0,-999.0,68,0.00,,,0.00,open2300 v1.10,2013-02-21 16:21:00,
2013-02-21 08:36:00,46.6,36.6,30.00,North,0,0.0,-999.0,68,0.00,,,0.00,open2300 v1.10,2013-02-21 16:36:00,
2013-02-21 08:51:00,47.1,36.7,30.01,North,0,0.0,-999.0,67,0.00,,,0.00,open2300 v1.10,2013-02-21 16:51:00,
2013-02-21 09:06:00,47.8,37.4,30.01,North,0,0.0,-999.0,67,0.00,,,0.00,open2300 v1.10,2013-02-21 17:06:00,
2013-02-21 09:21:00,47.8,37.0,30.02,North,0,0.0,-999.0,66,0.00,,,0.00,open2300 v1.10,2013-02-21 17:21:00,
2013-02-21 09:36:00,48.0,36.4,30.02,North,0,0.0,-999.0,64,0.00,,,0.00,open2300 v1.10,2013-02-21 17:36:00,
2013-02-21 09:51:00,48.7,37.1,30.03,North,0,0.0,-999.0,64,0.00,,,0.00,open2300 v1.10,2013-02-21 17:51:00,
2013-02-21 10:06:00,49.1,37.4,30.03,North,0,0.0,-999.0,64,0.00,,,0.00,open2300 v1.10,2013-02-21 18:06:00,
2013-02-21 10:21:00,49.3,36.8,30.03,North,0,0.0,-999.0,62,0.00,,,0.00,open2300 v1.10,2013-02-21 18:21:00,
2013-02-21 10:36:00,49.6,36.4,30.03,North,0,0.0,-999.0,60,0.00,,,0.00,open2300 v1.10,2013-02-21 18:36:00,
2013-02-21 10:51:00,49.8,36.5,30.03,North,0,0.0,-999.0,60,0.00,,,0.00,open2300 v1.10,2013-02-21 18:51:00,
2013-02-21 11:06:00,50.2,36.4,30.04,North,0,0.0,-999.0,59,0.00,,,0.00,open2300 v1.10,2013-02-21 19:06:00,
2013-02-21 11:21:00,50.5,36.3,30.03,North,0,0.0,-999.0,58,0.00,,,0.00,open2300 v1.10,2013-02-21 19:21:00,
2013-02-21 11:36:00,51.1,36.8,30.03,North,0,0.0,-999.0,58,0.00,,,0.00,open2300 v1.10,2013-02-21 19:36:00,
2013-02-21 11:51:00,51.8,37.0,30.03,North,0,0.0,-999.0,57,0.00,,,0.00,open2300 v1.10,2013-02-21 19:51:00,
2013-02-21 12:06:00,52.2,36.4,30.03,North,0,0.0,-999.0,55,0.00,,,0.00,open2300 v1.10,2013-02-21 20:06:00,
2013-02-21 12:21:00,52.7,36.5,30.02,North,0,0.0,-999.0,54,0.00,,,0.00,open2300 v1.10,2013-02-21 20:21:00,
2013-02-21 12:36:00,53.2,36.5,30.02,North,0,0.0,-999.0,53,0.00,,,0.00,open2300 v1.10,2013-02-21 20:36:00,
2013-02-21 12:51:00,53.4,35.7,30.00,North,0,0.0,-999.0,51,0.00,,,0.00,open2300 v1.10,2013-02-21 20:51:00,
2013-02-21 13:06:00,54.1,36.8,30.01,North,0,0.0,-999.0,52,0.00,,,0.00,open2300 v1.10,2013-02-21 21:06:00,
2013-02-21 13:21:00,54.3,37.0,30.00,North,0,0.0,-999.0,52,0.00,,,0.00,open2300 v1.10,2013-02-21 21:21:00,
2013-02-21 13:36:00,54.3,37.5,30.00,North,0,0.0,-999.0,53,0.00,,,0.00,open2300 v1.10,2013-02-21 21:36:00,
2013-02-21 13:51:00,54.3,37.5,30.00,North,0,0.0,-999.0,53,0.00,,,0.00,open2300 v1.10,2013-02-21 21:51:00,
2013-02-21 14:06:00,54.5,38.1,30.00,North,0,0.0,-999.0,54,0.00,,,0.00,open2300 v1.10,2013-02-21 22:06:00,
2013-02-21 14:21:00,54.7,37.8,29.99,North,0,0.0,-999.0,53,0.00,,,0.00,open2300 v1.10,2013-02-21 22:21:00,
2013-02-21 14:36:00,54.9,38.0,29.99,North,0,0.0,-999.0,53,0.00,,,0.00,open2300 v1.10,2013-02-21 22:36:00,
2013-02-21 14:51:00,55.2,37.8,29.98,North,0,0.0,-999.0,52,0.00,,,0.00,open2300 v1.10,2013-02-21 22:51:00,
2013-02-21 15:06:00,55.0,37.2,29.99,North,0,0.0,-999.0,51,0.00,,,0.00,open2300 v1.10,2013-02-21 23:06:00,
2013-02-21 15:21:00,55.0,37.7,29.99,North,0,0.0,-999.0,52,0.00,,,0.00,open2300 v1.10,2013-02-21 23:21:00,
2013-02-21 15:36:00,55.2,37.8,29.98,North,0,0.0,-999.0,52,0.00,,,0.00,open2300 v1.10,2013-02-21 23:36:00,
2013-02-21 15:51:00,55.8,38.3,29.97,North,0,0.0,-999.0,52,0.00,,,0.00,open2300 v1.10,2013-02-21 23:51:00,
2013-02-21 16:06:00,55.9,39.5,29.97,North,0,0.0,-999.0,54,0.00,,,0.00,open2300 v1.10,2013-02-22 00:06:00,
2013-02-21 16:21:00,55.9,40.4,29.97,North,0,0.0,-999.0,56,0.00,,,0.00,open2300 v1.10,2013-02-22 00:21:00,
2013-02-21 16:36:00,55.9,40.4,29.98,North,0,0.0,-999.0,56,0.00,,,0.00,open2300 v1.10,2013-02-22 00:36:00,
2013-02-21 16:51:00,56.1,40.6,29.98,North,0,0.0,-999.0,56,0.00,,,0.00,open2300 v1.10,2013-02-22 00:51:00,
2013-02-21 17:06:00,56.1,41.5,29.98,North,0,0.0,-999.0,58,0.00,,,0.00,open2300 v1.10,2013-02-22 01:06:00,
2013-02-21 17:21:00,55.8,41.1,29.99,North,0,0.0,-999.0,58,0.00,,,0.00,open2300 v1.10,2013-02-22 01:21:00,
2013-02-21 17:36:00,55.2,41.1,29.99,North,0,0.0,-999.0,59,0.00,,,0.00,open2300 v1.10,2013-02-22 01:36:00,
2013-02-21 17:51:00,54.3,40.8,29.99,North,0,0.0,-999.0,60,0.00,,,0.00,open2300 v1.10,2013-02-22 01:51:00,
2013-02-21 18:06:00,53.4,40.3,29.99,North,0,0.0,-999.0,61,0.00,,,0.00,open2300 v1.10,2013-02-22 02:06:00,
2013-02-21 18:21:00,53.1,40.0,29.99,North,0,0.0,-999.0,61,0.00,,,0.00,open2300 v1.10,2013-02-22 02:21:00,
2013-02-21 18:36:00,52.5,39.4,29.99,North,0,0.0,-999.0,61,0.00,,,0.00,open2300 v1.10,2013-02-22 02:36:00,
2013-02-21 18:51:00,52.0,39.3,30.00,North,0,0.0,-999.0,62,0.00,,,0.00,open2300 v1.10,2013-02-22 02:51:00,
2013-02-21 19:06:00,51.8,39.1,30.01,North,0,0.0,-999.0,62,0.00,,,0.00,open2300 v1.10,2013-02-22 03:06:00,
2013-02-21 19:21:00,51.4,38.8,30.00,North,0,0.0,-999.0,62,0.00,,,0.00,open2300 v1.10,2013-02-22 03:21:00,
2013-02-21 19:36:00,51.3,39.0,30.01,North,0,0.0,-999.0,63,0.00,,,0.00,open2300 v1.10,2013-02-22 03:36:00,
2013-02-21 19:51:00,51.1,38.9,30.01,North,0,0.0,-999.0,63,0.00,,,0.00,open2300 v1.10,2013-02-22 03:51:00,
2013-02-21 20:06:00,51.1,38.9,30.01,North,0,0.0,-999.0,63,0.00,,,0.00,open2300 v1.10,2013-02-22 04:06:00,
2013-02-21 20:21:00,50.9,38.7,30.01,North,0,0.0,-999.0,63,0.00,,,0.00,open2300 v1.10,2013-02-22 04:21:00,
2013-02-21 20:36:00,50.7,38.5,30.01,North,0,0.0,-999.0,63,0.00,,,0.00,open2300 v1.10,2013-02-22 04:36:00,
2013-02-21 20:51:00,50.5,38.8,30.02,North,0,0.0,-999.0,64,0.00,,,0.00,open2300 v1.10,2013-02-22 04:51:00,
2013-02-21 21:06:00,50.5,38.8,30.02,North,0,0.0,-999.0,64,0.00,,,0.00,open2300 v1.10,2013-02-22 05:06:00,
2013-02-21 21:21:00,50.4,38.6,30.03,North,0,0.0,-999.0,64,0.00,,,0.00,open2300 v1.10,2013-02-22 05:21:00,
2013-02-21 21:36:00,50.4,38.6,30.02,North,0,0.0,-999.0,64,0.00,,,0.00,open2300 v1.10,2013-02-22 05:36:00,
2013-02-21 21:51:00,50.4,39.0,30.03,North,0,0.0,-999.0,65,0.00,,,0.00,open2300 v1.10,2013-02-22 05:51:00,
2013-02-21 22:06:00,50.4,39.0,30.03,North,0,0.0,-999.0,65,0.00,,,0.00,open2300 v1.10,2013-02-22 06:06:00,
2013-02-21 22:21:00,50.2,38.8,30.04,North,0,0.0,-999.0,65,0.00,,,0.00,open2300 v1.10,2013-02-22 06:21:00,
2013-02-21 22:36:00,50.2,38.8,30.04,North,0,0.0,-999.0,65,0.00,,,0.00,open2300 v1.10,2013-02-22 06:36:00,
2013-02-21 22:51:00,50.2,39.2,30.04,North,0,0.0,-999.0,66,0.00,,,0.00,open2300 v1.10,2013-02-22 06:51:00,
2013-02-21 23:06:00,50.0,39.1,30.04,North,0,0.0,-999.0,66,0.00,,,0.00,open2300 v1.10,2013-02-22 07:06:00,
2013-02-21 23:21:00,49.8,38.9,30.04,North,0,0.0,-999.0,66,0.00,,,0.00,open2300 v1.10,2013-02-22 07:21:00,
2013-02-21 23:36:00,49.8,39.3,30.04,North,0,0.0,-999.0,67,0.00,,,0.00,open2300 v1.10,2013-02-22 07:36:00,
2013-02-21 23:51:00,49.6,39.1,30.04,North,0,0.0,-999.0,67,0.00,,,0.00,open2300 v1.10,2013-02-22 07:51:00,